カタリナ-スペースウォッチ彗星

C/2013 PE67 ( Catalina-Spacewatch )

English version
Home page
Updated on May 7, 2015

---------------------------------------------------------------------

・ プロフィール

発見日 2013年8月9日
発見光度 19.5等、19.3等
発見者 E. J. Christensen and J. A. Johnson (Catalina Sky Survey ), J. V. Scotti (Spacewatch II, Kitt Peak)

・ 写真集

・ 軌道要素

Epoch 2013 Dec. 14.0 TT = JDT 2456640.5
T 2013 Dec.  9.30114 TT                                 MPC
q   1.8470731            (2000.0)            P               Q
z  +0.0179768      Peri.   59.48414     +0.20397094     -0.84167024
 +/-0.0000000      Node   325.96144     -0.86134166     +0.08844210
e   0.9667955      Incl.  116.71780     +0.46528098     +0.53269992
From 153 observations 2013 Aug. 3-2014 June 3, mean residual 0".5.

・ 光度変化

        m1 = 14.0 + 5 logΔ + 10.0 log r

---------------------------------------------------------------------

軌道要素はM.P.E.C. 2014-L52に掲載されたものです。
光度グラフはComet for Windowsで作成したものです。

---------------------------------------------------------------------

Copyright(C) Seiichi Yoshida (comet@aerith.net). All rights reserved.